Location: Fort Worth, Tx
(32.7431°N, 97.3695°W)
Time: 18:31:46
(UTC-04:00)

Transit 4A - Pass Details

Date: 29 February 2024
Orbit: 871 x 972 km, 66.8° (Epoch: 21 April)

Event Time Altitude Azimuth Distance (km) Brightness Sun altitude
Rises 11:52:59 0° 324° (NW) 3,469 10.4 42.1°
Reaches altitude 10° 11:55:37 10° 317° (NW) 2,522 9.8 42.4°
Maximum altitude 12:00:55 38° 251° (WSW) 1,310 9.0 43.1°
Drops below altitude 10° 12:06:13 10° 185° (S) 2,515 10.9 43.7°
Sets 12:08:51 0° 177° (S) 3,457 11.5 44.0°
